GSAT-7

Last updated on Wed Sep 17 2025 00:02:48 GMT+0000 (Coordinated Universal Time)

1 39234U 13044B 25259.59837874 -.00000097 00000+0 00000+0 0 9992 2 39234 0.0231 101.8804 0005371 152.2288 31.0999 1.00272777 42511
UTC large
Height (km)
Speed (km/s)
/
Latitude / Longitude
Inclination (degrees)
Orbital Period (minutes)
Azimuth
Elevation
Range (km)
Doppler Factor

Next 0 passes for location: London (51.5072 / 0.1276)

Sorry there are no passes over London.